Flag for U.S.A. Weather past 2 weeks in Hampton, Virginia, U.S.A.

Now
61 °F

Passing clouds.


Feels Like: 61 °F
Forecast: 46 / 62 °F
Wind: 12 mph from Southwest

Location: Langley Air Force Base

Current Time: Mar 4, 2015 at 2:22:46 PM

Latest Report: Mar 4, 2015 at 2:03 PM


Visibility: 9 mi

Pressure: 29.90 "Hg

Humidity: 83%

Dew point: 55 °F

Location of HamptonLocation

Historic Weather in Hampton — Graph

°F

Hampton temperature yesterday

Maximum temperature yesterday: 40 °F (at 10:58 PM)
Minimum temperature yesterday: 29 °F (at 5:58 AM)
Average temperature yesterday: 35 °F

Past Weeks' High & Low Weather Summary

 TemperatureHumidityPressure
High57 °F (Mar 4, 1:03 PM)100% (Feb 22, 6:03 AM)30.86 "Hg (Feb 22, 6:03 AM)
Low6 °F (Feb 20, 6:58 AM)26% (Feb 19, 2:58 PM)29.74 "Hg (Feb 26, 4:03 AM)
Average30 °F72%30.23 "Hg
* Reported Feb 17 1:58 PM — Mar 4 1:03 PM, Hampton, Weather by CustomWeather, © 2015

Note: Actual official high and low records may vary slightly from our data, if they occured in-between our weather recording intervals... More about our weather records

Advertising

Hampton weather history for previous 24 hours

 ConditionsComfort  
Time TempWeatherWind HumidityBarometerVisibility
1:03 PM
Wed, Mar 4
57 °FMostly cloudy.14 mph88%29.93 "Hg9 mi
12:58 PM56 °FMostly cloudy.13 mph90%29.95 "Hg9 mi
11:58 AM54 °FFog.12 mph95%29.98 "Hg5 mi
11:03 AM52 °FFog.9 mph100%29.97 "Hg4 mi
10:58 AM52 °FFog.9 mph97%29.99 "Hg4 mi
10:03 AM50 °FFog.12 mph100%29.97 "Hg1 mi
9:58 AM50 °FFog.9 mph98%29.98 "Hg1 mi
9:03 AM50 °FFog.10 mph94%29.97 "Hg1 mi
8:58 AM48 °FFog.9 mph100%29.99 "Hg1 mi
7:58 AM48 °FFog.10 mph97%29.97 "Hg1 mi
6:58 AM47 °FFog.17 mph97%29.95 "Hg1 mi
6:03 AM46 °FFog.16 mph100%29.93 "Hg2 mi
5:58 AM46 °FFog.18 mph97%29.94 "Hg2 mi
5:03 AM45 °FFog.16 mph100%29.92 "Hg1 mi
4:58 AM44 °FFog.17 mph97%29.94 "Hg1 mi
3:58 AM43 °FFog.16 mph96%29.93 "Hg3 mi
3:03 AM41 °FFog.14 mph100%29.93 "Hg6 mi
2:58 AM41 °FLow clouds.9 mph95%29.95 "Hg7 mi
2:03 AM41 °FLight rain. Fog.15 mph93%29.97 "Hg5 mi
1:58 AM41 °FLight rain. Fog.13 mph97%29.99 "Hg2 mi
12:58 AM40 °FLight rain. Fog.10 mph96%30.01 "Hg4 mi
11:58 PM
Tue, Mar 3
39 °FFog.10 mph95%30.02 "Hg2 mi
10:58 PM40 °FFog.12 mph93%30.06 "Hg5 mi
9:58 PM39 °FLow clouds.9 mph87%30.08 "Hg8 mi
8:58 PM39 °FOvercast.8 mph82%30.10 "Hg10 mi
7:58 PM38 °FOvercast.9 mph80%30.11 "Hg10 mi
6:58 PM38 °FPassing clouds.5 mph78%30.14 "Hg9 mi
5:59 PM37 °FDrizzle. Overcast.3 mph81%30.16 "Hg7 mi
4:58 PM38 °FOvercast.No wind71%30.19 "Hg9 mi
3:58 PM37 °FMostly cloudy.1 mph71%30.23 "Hg9 mi
2:58 PM37 °FOvercast.6 mph69%30.26 "Hg10 mi
Weather by CustomWeather, © 2015

See weather overviewHow to use our weather pages